www.pogodaiklimat.ru

Погода и климат >> Архив погоды >> Доминиканская Республика >> Barahona


ПОГОДА в Barahona

  • Прогноз погоды в Barahona
  • Монитор погоды в Barahona
  • Климат города

АРХИВ ПОГОДЫ в Barahona

Время (UTC), дата Ветер
(напр.,м/с)
 
Видим.   Явления Облачность Т
(С)
Тd
(С)
f
(%)
Тe
(С)
Тes
(С)
Комфортность P
(гПа)
Po
(гПа)
Тmin
(С)
Tmax
(С)
R
(мм)
R24
(мм)
S
(см)
21 10.10 ЮВ 6 16 км 8/5 600 м
[Cb cap Ci fib]
+29.0 +23.6 73 +40 +40 очень
душно
1011.7 1012.0
12 11.10 штиль 0 16 км 5/3 420 м
[Cb cap Ci fib]
+24.0 +22.6 92 +31 +33 очень
душно
1014.0 1014.0 +23.1 +31.1
15 11.10 В 3 16 км 4/4 600 м
[Cb cap Ac trans Ci fib]
+30.0 +23.6 69 +41 +48 опасность
перегрева
1015.3 1015.0
18 11.10 Ю 6 16 км 4/4 600 м
[Cb cap Ac trans Ci fib]
+31.5 +21.7 56 +40 +43 очень
душно
1013.0 1013.0 +23.1 +32.0
00 12.10 В 3 16 км 9/6 540 м
[Cb cap Ac und Cs]
+26.0 +22.7 82 +34 +34 очень
душно
1013.2 1013.0 +23.1 +32.2
12 12.10 штиль 0 16 км 5/3 480 м
[Cb cap Ac trans Ci fib]
+25.0 +22.2 84 +32 +33 очень
душно
1014.2 1014.0 +22.8 +32.2
15 12.10 Ю 6 8000 м осадки на расстоянии 8/5 480 м
[Cb cap Ac trans Cs]
+29.6 +24.6 75 +42 +44 опасность
перегрева
1016.2 1016.0
18 12.10 В 7 16 км 8/6 480 м
[Cb cap Ac und Cs]
+29.0 +24.2 75 +40 +42 очень
душно
1014.2 1014.0 +22.8 +30.6
21 12.10 ЮВ 5 8000 м осадки на расстоянии 9/8 420 м
[Cb cap Ac As Cs]
+26.5 +24.5 89 +37 +38 очень
душно
1012.8 1013.0
00 13.10 штиль 0 16 км 8/4 480 м
[Cb cap Ac trans Cs]
+25.5 +23.7 90 +35 +35 очень
душно
1013.2 1013.0 +22.8 +30.6
03 13.10 штиль 0 16 км 8/4 480 м
[Cb cap Ac trans Cs]
+25.5 +23.7 90 +35 +35 очень
душно
1013.2 1013.0 +22.8 +30.6
12 13.10 штиль 0 16 км 4/3 480 м
[Cb cap Ac trans Ci fib]
+23.4 +22.1 92 +22.5 +30.6
15 13.10 ЮВ 7 16 км {дождь} 6/4 540 м
[Cb cap Ac und Cs]
+28.8 +24.4 77 +40 +42 очень
душно
1016.0 1016.0 0.0
18 13.10 ЮВ 8 16 км {дождь} 9/5 540 м
[Cb cap Ac As Cs]
+27.4 +24.7 85 +39 +40 очень
душно
1014.6 1015.0 +22.8 +29.6
21 13.10 ЮВ 9 8000 м слабый дождь 8/6 480 м
[Cb cap As op Cs]
+27.5 +24.7 85 +39 +39 очень
душно
1013.8 1014.0 0.0
00 14.10 ЮВ 7 8000 м пыль {дождь} 9/8 480 м
[Cb cap As op Cs]
+25.9 +23.8 88 +35 +35 очень
душно
1014.8 1015.0 +22.5 +29.6 0.3
12 14.10 штиль 0 16 км 8/4 300 м
[Cb cap Ac As Cs]
+24.5 +23.1 92 +33 +33 очень
душно
1015.8 1016.0 +22.4 +29.6 0.3
18 14.10 ЮВ 9 16 км 8/5 630 м
[Cb cap Ac trans Cs]
+30.0 +25.3 76 +44 +44 опасность
перегрева
1015.4 1015.0 +22.4 +30.4
21 14.10 ЮВ 8 16 км 6/5 600 м
[Cb cap Ac trans Cs]
+29.5 +24.6 75 +42 +42 опасность
перегрева
1014.0 1014.0
12 15.10 З 2 16 км 5/1 480 м
[Cu med, cong Ac trans Ci fib]
+22.8 +21.4 92 +30 +31 очень
душно
1016.2 1016.0 +21.5 +30.4
15 15.10 ЮВ 6 16 км 4/4 600 м
[Cb cap]
+29.8 +23.2 68 +40 +43 очень
душно
1017.6 1018.0
18 15.10 ЮВ 8 16 км 9/4 660 м
[Cb cap Ci fib]
+32.0 +22.8 58 +42 +43 опасность
перегрева
1014.8 1015.0 +21.5 +32.8
21 15.10 ЮВ 6 16 км 4/4 600 м
[Cb cap]
+30.9 +22.9 62 +41 +41 опасность
перегрева
1013.2 1013.0
00 16.10 штиль 0 16 км {гроза} 6/6 480 м
[Cb cap]
+26.4 +23.9 86 +36 +36 очень
душно
1014.7 1015.0 +21.5 +32.8
12 16.10 штиль 0 16 км 4/4 300 м
[Cu Sc]
+23.2 +21.8 92 +31 +33 очень
душно
1016.8 1017.0 +21.5 +32.8 1
15 16.10 ЮВ 3 16 км 8/3 600 м
[Cb cap Ci fib]
+30.2 +23.5 67 +41 +47 опасность
перегрева
1016.8 1017.0
18 16.10 ЮВ 8 16 км 8/3 600 м
[Cb cap Ac As]
+31.8 +22.5 58 +41 +42 опасность
перегрева
1014.2 1014.0 +21.5 +32.2
21 16.10 ЮВ 8 16 км 9/4 660 м
[Cb cap Ac As]
+29.8 +23.9 71 +41 +41 опасность
перегрева
1013.4 1013.0
00 17.10 Ю 3 16 км 9/4 480 м
[Cb cap Ac As]
+27.8 +24.3 81 +39 +39 очень
душно
1013.0 1013.0 +21.5 +32.4
12 17.10 З 3 16 км 4/4 480 м
[Cb cap]
+24.6 +22.1 86 +32 +32 очень
душно
1015.3 1015.0 +22.0 +32.4
15 17.10 ЮВ 3 16 км 4/4 600 м
[Cb cap]
+31.4 +24.2 66 +44 +50 опасность
перегрева
1016.2 1016.0

 

Местоположение метеостанции Barahona (Доминиканская Республика): широта 18.20 долгота -71.10 высота над уровнем моря 3 м.

В архиве по умолчанию представлена погода в Barahona за последнюю неделю. Архивные данные за месяц целиком и за предыдущие месяцы, начиная с января 2011 года, Вы можете получить, выбрав интересующий диапазон дат из раскрывающегося списка и нажав кнопку "Ввод!".


*Определитесь, кто Вы:
робот инопланетянин человек

Внимание! Время в таблицах - всемирное. Для получения местного времени необходимо прибавить поправку, которая в Barahona равна -4 ч.

Смотрите также архив погоды в соседних городах и на ближайших метеорологических станциях:

Погода в Santo Domingo (Доминиканская Республика) (131 км)
Погода в Santiago (Доминиканская Республика) (145 км)
Погода в Las Americas (Доминиканская Республика) (154 км)
Погода в Puerto Plata (Доминиканская Республика) (182 км)
Погода в Sabana De La Mar (Доминиканская Республика) (204 км)
Погода в La Romana Int Airport (Доминиканская Республика) (232 км)
Погода в Punta Cana (Доминиканская Республика) (292 км)
Погода в Punta de Maisi (Куба) (393 км)
Погода в Santiago de Cuba (Куба) (537 км)
Погода в Punta Lucrecia (Куба) (570 км)

Пояснения к столбцам:

Ветер - указаны скорость ветра в м/с - средняя за 10 мин, порывы в срок и между сроками (в фигурных скобках) и направление, откуда дует ветер: С - северный, СВ - северо-восточный, В - восточный, ЮВ - юго-восточный, Ю - южный, ЮЗ - юго-западный, З - западный, СЗ - северо-западный.
Видимость - горизонтальная дальность видимости в метрах или километрах. При видимости от 1 до 10 км при отсутствии осадков обычно наблюдается дымка, при ухудшении видимости до 1 км и менее - туман. В сухую погоду видимость может ухудшаться дымом, пылью или мглою.
Явления - указаны атмосферные явления, наблюдавшиеся в срок или в последний час перед сроком; фигурными скобками обозначены явления, наблюдавшиеся между сроками (за 1-3 часа до срока); квадратными скобками обозначены град или гололедные отложения с указанием их диаметра в мм.
Облачность - указаны через наклонную черту общая и нижняя облачность в баллах и высота нижней границы облаков в метрах; квадратными скобками обозначены формы облаков: Ci - перистые, Cs - перисто-слоистые, Cc - перисто-кучевые, Ac - высококучевые, As - высокослоистые, Sc - слоисто-кучевые, Ns - слоисто-дождевые, Cu - кучевые, Cb - кучево-дождевые. Подробнее классификацию облаков см. в Атласе облаков (PDF).
T - Температура воздуха - температура, измеренная на высоте 2 м над землей.
Td - Температура точки росы - температура, при понижении до которой содержащийся в воздухе водяной пар достигнет насыщения.
f - Относительная влажность воздуха - влажноcть воздуха, измеренная на высоте 2 м над землей.
Te - Эффективная температура - температура, которую ощущает одетый по сезону человек в тени. Характеристика душности погоды. При расчете учитывается влияние влажности воздуха и скорости ветра на теплоощущения человека.
Tes - Эффективная температура на солнце - температура, которую ощущает человек, с поправкой на солнечный нагрев. Характеристика знойности погоды. Зависит от высоты солнца над горизонтом, облачности и скорости ветра. Ночью, в пасмурную погоду, а также при ветре 12 м/с и более поправка равна нулю.
P - Атмосферное давление - приведенное к уровню моря атмосферное давление.
Po - Атмосферное давление - измеренное на уровне метеостанции атмосферное давление.
Tmin - Минимальная температура - минимум температуры воздуха на высоте 2 м над землей.
Tmax - Максимальная температура - максимум температуры воздуха на высоте 2 м над землей.
R - Количество осадков - Количество выпавших осадков за период времени, мм. При наведении курсора мыши на число - период времени, за который выпало указанное количество осадков.
R24 - Количество осадков - Количество выпавших осадков за 24 часа, мм.
S - Снежный покров - Высота снежного покрова, см. При наведении курсора мыши на число - состояние снежного покрова и степень покрытия местности в баллах.